When you browse on this site, cookies collect data to enhance your experience and personalize the content and advertising you see.
Visit our Privacy Policy to learn more. By continuing to use the site, you agree to this use of cookies and data.
  • In Schweiz
  • Länderverzeichnis
  • Für 7 Tage
  • Wassertemperatur
  • Satellitenkarten
  • Wetterkarte
  • Widgets
  • user-avatar
    Anmelden

    Stündliche Wetter Playuts'

    Heute, 26 April, Freitag

    Zeit Temperatur Niederschläge Wind Luftdruck Luftfeuchtigkeit
    00:00 +15°C° 0 mm 2 m/S 730 mmHg 92%
    01:00 +15°C° 0 mm 2 m/S 730 mmHg 94%
    02:00 +15°C° 0 mm 2 m/S 730 mmHg 93%
    03:00 +14°C° 0 mm 2 m/S 730 mmHg 94%
    04:00 +14°C° 0 mm 2 m/S 729 mmHg 95%
    05:00 +14°C° 0 mm 2 m/S 729 mmHg 95%
    06:00 +14°C° 0 mm 2 m/S 729 mmHg 96%
    07:00 +15°C° 0 mm 2 m/S 730 mmHg 97%
    08:00 +16°C° 0 mm 1 m/S 730 mmHg 97%
    09:00 +18°C° 0 mm 1 m/S 730 mmHg 96%
    10:00 +19°C° 0 mm 1 m/S 730 mmHg 92%
    11:00 +20°C° 0 mm 1 m/S 730 mmHg 89%
    12:00 +20°C° 0 mm 2 m/S 730 mmHg 88%
    13:00 +21°C° 0 mm 2 m/S 730 mmHg 85%
    14:00 +21°C° 0 mm 3 m/S 729 mmHg 82%
    15:00 +23°C° 0 mm 2 m/S 729 mmHg 81%
    16:00 +23°C° 0 mm 1 m/S 728 mmHg 81%
    17:00 +23°C° 0 mm 1 m/S 728 mmHg 81%
    18:00 +18°C° 0.3 mm 3 m/S 727 mmHg 82%
    19:00 +18°C° 0 mm 2 m/S 727 mmHg 89%
    20:00 +18°C° 0 mm 2 m/S 727 mmHg 91%
    21:00 +18°C° 0 mm 2 m/S 727 mmHg 90%
    22:00 +17°C° 0 mm 2 m/S 727 mmHg 88%
    23:00 +18°C° 0 mm 1 m/S 727 mmHg 84%

    Morgen, 27 April, Samstag

    Zeit Temperatur Niederschläge Wind Luftdruck Luftfeuchtigkeit
    00:00 +17°C° 0 mm 2 m/S 727 mmHg 86%
    01:00 +16°C° 0 mm 3 m/S 727 mmHg 92%
    02:00 +14°C° 0 mm 3 m/S 727 mmHg 94%
    03:00 +15°C° 0 mm 2 m/S 726 mmHg 95%
    04:00 +15°C° 0 mm 2 m/S 726 mmHg 95%
    05:00 +14°C° 0 mm 2 m/S 725 mmHg 95%
    06:00 +14°C° 0 mm 2 m/S 725 mmHg 94%
    07:00 +15°C° 0 mm 1 m/S 725 mmHg 95%
    08:00 +16°C° 0 mm 1 m/S 725 mmHg 97%
    09:00 +17°C° 0 mm 2 m/S 725 mmHg 95%
    10:00 +19°C° 0 mm 2 m/S 725 mmHg 92%
    11:00 +20°C° 0 mm 2 m/S 725 mmHg 89%
    12:00 +21°C° 0 mm 3 m/S 724 mmHg 89%
    13:00 +21°C° 0 mm 3 m/S 724 mmHg 86%
    14:00 +22°C° 0 mm 3 m/S 723 mmHg 85%
    15:00 +21°C° 0 mm 3 m/S 723 mmHg 86%
    16:00 +21°C° 0 mm 4 m/S 722 mmHg 86%
    17:00 +21°C° 0 mm 3 m/S 722 mmHg 86%
    18:00 +19°C° 0 mm 4 m/S 722 mmHg 94%
    19:00 +17°C° 1.8 mm 3 m/S 722 mmHg 99%
    20:00 +17°C° 0 mm 2 m/S 722 mmHg 93%
    21:00 +18°C° 0 mm 1 m/S 722 mmHg 90%
    22:00 +16°C° 0 mm 1 m/S 721 mmHg 94%
    23:00 +15°C° 0 mm 2 m/S 721 mmHg 100%

    übermorgen, 28 April, Sonntag

    Zeit Temperatur Niederschläge Wind Luftdruck Luftfeuchtigkeit
    00:00 +15°C° 0 mm 1 m/S 721 mmHg 100%
    01:00 +15°C° 0 mm 1 m/S 721 mmHg 100%
    02:00 +15°C° 0 mm 1 m/S 720 mmHg 100%
    03:00 +15°C° 0 mm 1 m/S 719 mmHg 99%
    04:00 +13°C° 1.8 mm 3 m/S 719 mmHg 100%
    05:00 +12°C° 2.4 mm 4 m/S 720 mmHg 100%
    06:00 +13°C° 0.9 mm 2 m/S 720 mmHg 100%
    07:00 +11°C° 0 mm 3 m/S 721 mmHg 100%
    08:00 +10°C° 0 mm 2 m/S 720 mmHg 100%
    09:00 +10°C° 0 mm 3 m/S 720 mmHg 100%
    10:00 +10°C° 0 mm 2 m/S 721 mmHg 100%
    11:00 +10°C° 0 mm 2 m/S 721 mmHg 100%
    12:00 +12°C° 0 mm 2 m/S 721 mmHg 99%
    13:00 +12°C° 0 mm 4 m/S 721 mmHg 95%
    14:00 +12°C° 0 mm 4 m/S 721 mmHg 91%
    15:00 +12°C° 0 mm 4 m/S 722 mmHg 89%
    16:00 +12°C° 0 mm 3 m/S 721 mmHg 88%
    17:00 +12°C° 0 mm 3 m/S 721 mmHg 90%
    18:00 +13°C° 0 mm 3 m/S 722 mmHg 88%
    19:00 +12°C° 0 mm 3 m/S 722 mmHg 90%
    20:00 +12°C° 0 mm 2 m/S 722 mmHg 92%
    21:00 +12°C° 0 mm 2 m/S 722 mmHg 96%
    22:00 +10°C° 0 mm 3 m/S 722 mmHg 98%
    23:00 +10°C° 0 mm 3 m/S 722 mmHg 100%

    29 April, Montag

    Zeit Temperatur Niederschläge Wind Luftdruck Luftfeuchtigkeit
    00:00 +10°C° 0 mm 3 m/S 722 mmHg 100%
    01:00 +10°C° 0 mm 3 m/S 722 mmHg 100%
    02:00 +9°C° 0 mm 3 m/S 722 mmHg 100%
    03:00 +9°C° 0.1 mm 3 m/S 722 mmHg 100%
    04:00 +9°C° 0.3 mm 3 m/S 722 mmHg 100%
    05:00 +8°C° 0.3 mm 4 m/S 722 mmHg 100%
    06:00 +9°C° 0.1 mm 3 m/S 722 mmHg 100%
    07:00 +9°C° 0 mm 3 m/S 722 mmHg 100%
    08:00 +9°C° 0 mm 3 m/S 722 mmHg 100%
    09:00 +10°C° 0 mm 4 m/S 722 mmHg 100%
    10:00 +11°C° 0 mm 3 m/S 723 mmHg 99%
    11:00 +12°C° 0.9 mm 2 m/S 723 mmHg 100%
    12:00 +12°C° 0.5 mm 3 m/S 723 mmHg 100%
    13:00 +13°C° 0.9 mm 4 m/S 722 mmHg 100%
    14:00 +13°C° 0.2 mm 6 m/S 722 mmHg 99%

    30 April, Dienstag

    Zeit Temperatur Niederschläge Wind Luftdruck Luftfeuchtigkeit

    1 Mai, Mittwoch

    Zeit Temperatur Niederschläge Wind Luftdruck Luftfeuchtigkeit
    Mehr zeigen